Regional Weather Roundup
Issued by NWS Newport/Morehead, NC

Current Version | Previous Version | Text Only | Print | Product List | Glossary On
Versions: 1 2 3 4 5 6 7 8 9 10 11 12 13 14 15 16 17 18 19 20 21 22 23 24 25 26 27 28 29 30 31 32 33 34 35 36 37 38 39 40 41 42 43 44 45 46 47 48 49 50
000
ASUS42 KMHX 291722
RWRMHX
WEATHER ROUNDUP FOR EASTERN NORTH CAROLINA
NATIONAL WEATHER SERVICE NEWPORT/MOREHEAD CITY NC
100 PM EDT FRI AUG 29 2014

NOTE: "FAIR" INDICATES FEW OR NO CLOUDS BELOW 12,000 FEET
WITH NO SIGNIFICANT WEATHER AND/OR OBSTRUCTIONS TO VISIBILITY

NCZ015>017-031-032-045>047-102-103-291800-
NORTH COAST

CITY           SKY/WX    TMP DP  RH WIND       PRES   REMARKS
EDENTON        PTSUNNY   81  69  66 SE12G17   30.14S
ELIZABETH CITY PTSUNNY   81  66  60 E10       30.15S
KITTY HAWK     CLOUDY    79  66  64 NE9       30.14R
MANTEO         PTSUNNY   80  67  65 NE16      30.14S

$$

NCZ045>047-081-094-103-104-291800-
CENTRAL COAST

CITY           SKY/WX    TMP DP  RH WIND       PRES   REMARKS
FRISCO         MOSUNNY   81  75  82 NE9       30.11F
SWANQUARTER      N/A     82 N/A N/A NE3G10    30.09S

$$

NCZ095-097-098-100-101-291800-
SOUTHERN COAST

CITY           SKY/WX    TMP DP  RH WIND       PRES   REMARKS
BEAUFORT       SUNNY     86  68  54 SW6       30.10F
CEDAR ISLAND     N/A     82 N/A N/A NE7       30.15S
JACKSONVILLE   SUNNY     88  64  44 VRB5      30.10S
NEWPORT        NOT AVBL
PINEY ISLAND   SUNNY     83  74  74 NE10      30.11S
WILMINGTON     SUNNY     89  67  47 VRB5      30.10F


$$

NCZ011>013-027>030-043-044-078>080-089-090>093-098-291800-
COASTAL PLAIN

CITY           SKY/WX    TMP DP  RH WIND       PRES   REMARKS
AHOSKIE        MOSUNNY   78  69  73 NE3       30.14F
CLINTON        SUNNY     90  71  53 CALM      30.10F
ELIZABETHTOWN  SUNNY     87  65  47 CALM      30.10S
GOLDSBORO      PTSUNNY   82  79  89 NE8       30.10F
GREENVILLE     PTSUNNY   82  72  69 E6        30.13S
HAVELOCK       SUNNY     87  67  51 CALM      30.12S
KENANSVILLE    MOSUNNY   85  71  61 N7        30.11S
KINSTON        MOSUNNY   81  72  74 NE7       30.13S
NEW BERN       MOSUNNY   86  73  65 VRB3      30.12S
RICHLANDS      PTSUNNY   88  64  45 CALM      30.10F
ROANOKE RAPIDS NOT AVBL
ROCKY MOUNT    CLOUDY    82  71  69 NE8       30.14S
WASHINGTON     SUNNY     83  72  69 E7        30.13S
WHITEVILLE     SUNNY     88  65  47 CALM      30.09F

$$

AMZ130-135-150-152-154-156-158-170-250-252-270-ANZ085-086-088-633-658-670-291800-
MARINE OBSERVATIONS

STATION/POSITION TIME  TEMP    WIND        PRES    WAVE   SWELL
                       AIR SEA DIR/SP/G            HT/PER HT/PER
                 (UTC) (F)     (DEG/KT/KT) (MB)    (FT/S) (FT/S)
CHESAPEAKE LIGHT 1700   73      60/ 13/ 14 1022.1
BUOY 44014       1700   76 76   40/  8/ 10 1020.7    4/ 9   3/ 9
DUCK             1700   76 78   50/ 15/ 17 1020.3
2E DUCK          1700                        N/A     3/ 8
OREGON INLET     1700   78 79   50/ 12/ 15 1020.3
BUOY 44095       1700      77                N/A     4/ 9   2/11
20E OREGON INLET NOT AVBL
HATTERAS CG      1700   79 80   80/  7/ 12 1020.2
DIAMOND BUOY     1700   80     280/  6/  6 1019.7    3/ 8   3/ 8
CAPE LOOKOUT     1700   83     210/  7/  9 1019.4
BEAUFORT LAB     1700   83 80  200/  7/  8 1018.9
30 SE NEW RIVER  1700   80 83  250/  4/  4 1020.2    3/ 9   2/ 9
5 SE WRIGHTSVILL 1600   78 81  170/  4/  4   N/A
BUOY 41002       1634   81 83  100/  6/  8 1021.0    4/ 7   3/ 7
BUOY 41004       1700   83 85   CALM  /  2 1018.7    3/ 9   3/ 9

$$


USA.gov is the U.S. government's official web portal to all federal, state and local government web resources and services.